Regional Weather Roundup
Issued by NWS

Home | Current Version | Previous Version | Graphics & Text | Print | Product List | Glossary On
Versions: 1 2 3 4 5 6 7 8 9 10 11 12 13 14 15 16 17 18 19 20 21 22 23 24 25 26 27 28 29 30 31 32 33 34 35 36 37 38 39 40 41 42 43 44 45 46 47 48 49 50
000
ASUS45 KPSR 261210
RWRAZ

ARIZONA REGIONAL HOURLY WEATHER ROUNDUP
NATIONAL WEATHER SERVICE PHOENIX AZ
500 AM MST MON JAN 26 2015

NOTE: FAIR INDICATES FEW OR NO CLOUDS BELOW 12,000 FEET WITH NO
SIGNIFICANT WEATHER AND/OR OBSTRUCTIONS TO VISIBILITY.

AZZ001>003-036-261300-
NORTHWEST ARIZONA

CITY           SKY/WX    TMP DP  RH WIND       PRES   REMARKS
BULLHEAD CITY  MOCLDY    64  32  29 NE17      30.09F
KINGMAN        PTCLDY    40  25  55 E5        30.18F
6HR MIN TEMP:  38; 6HR MAX TEMP:  56;

$$

AZZ004>008-015-016-018-261300-
NORTH CENTRAL ARIZONA

CITY           SKY/WX    TMP DP  RH WIND       PRES   REMARKS
GRAND CANYON   MOCLDY    28  20  71 CALM      30.32S
6HR MIN TEMP:  24; 6HR MAX TEMP:  44;

PRESCOTT       CLOUDY    35  22  58 VRB5      30.25S WCI  31
6HR MIN TEMP:  32; 6HR MAX TEMP:  45;

FLAGSTAFF      PTCLDY    32  20  61 CALM      30.32S
6HR MIN TEMP:  27; 6HR MAX TEMP:  41;

PAYSON         CLOUDY    48  23  37 E5        30.26S
$$

AZZ009>014-017-261300-
NORTHEAST ARIZONA

CITY           SKY/WX    TMP DP  RH WIND       PRES   REMARKS
WINSLOW        MOCLDY    28  23  81 SE8       30.33S WCI  20
6HR MIN TEMP:  26; 6HR MAX TEMP:  34;

SAINT JOHNS    PTCLDY    23  19  85 CALM      30.32S
6HR MIN TEMP:  22; 6HR MAX TEMP:  33;

WINDOW ROCK    CLEAR     24  19  81 NE3       30.37R
6HR MIN TEMP:  22; 6HR MAX TEMP:  30;

SHOW LOW       PTCLDY    25  19  80 CALM      30.34S
$$

AZZ023-261300-
GREATER PHOENIX AREA

CITY           SKY/WX    TMP DP  RH WIND       PRES   REMARKS
PHOENIX        CLOUDY    56  31  38 S8        30.07F
6HR MIN TEMP:  53; 6HR MAX TEMP:  59;

BUCKEYE          N/A     46  27  46 N7        30.08F
LUKE AFB       NOT AVBL
6HR MIN TEMP:  48; 6HR MAX TEMP:  51;

DEER VALLEY    CLOUDY    57  26  30 N7        30.08S
6HR MIN TEMP:  53; 6HR MAX TEMP:  63;

SCOTTSDALE     CLOUDY    58  27  30 W7        30.09S
6HR MIN TEMP:  51; 6HR MAX TEMP:  58;

$$

AZZ027-028-261300-
SOUTHWEST MARICOPA COUNTY AND PINAL COUNTY

CITY           SKY/WX    TMP DP  RH WIND       PRES   REMARKS
CASA GRANDE    CLOUDY    48  25  40 SW3       30.09S
6HR MIN TEMP:  48; 6HR MAX TEMP:  61;

GILA BEND      FAIR      52  26  36 S2        30.05S
6HR MIN TEMP:  50; 6HR MAX TEMP:  57;

$$

AZZ503-504-507>509-261300-
SOUTHEAST ARIZONA

CITY           SKY/WX    TMP DP  RH WIND       PRES   REMARKS
TUCSON         CLOUDY    51  26  37 SE5       30.13F
6HR MIN TEMP:  50; 6HR MAX TEMP:  59;

DAVIS-MONTHAN  CLOUDY    58  23  26 SE12      30.11S
6HR MIN TEMP:  55; 6HR MAX TEMP:  59;

NOGALES        CLOUDY    52  28  39 NE6       30.15F
6HR MIN TEMP:  48; 6HR MAX TEMP:  55;

SIERRA VISTA   MOCLDY    46  19  34 NE3       30.20F
DOUGLAS        CLOUDY    40  22  48 NW7       30.20F
6HR MIN TEMP:  37; 6HR MAX TEMP:  48;

SAFFORD        CLOUDY    47  23  38 SE15      30.22S
6HR MIN TEMP:  47; 6HR MAX TEMP:  50;

$$

AZZ020-021-025-026-031-261300-
SOUTHWEST ARIZONA

CITY           SKY/WX    TMP DP  RH WIND       PRES   REMARKS
YUMA           LGT RAIN  58  37  45 NE5       30.03F
6HR MIN TEMP:  58; 6HR MAX TEMP:  62; 6HR PCP: TRACE;

$$

CAZ031-033-041-043-047-048-061-261300-
SOUTHERN CALIFORNIA

CITY           SKY/WX    TMP DP  RH WIND       PRES   REMARKS
DOWNTOWN L.A.  CLOUDY    59  40  49 CALM      29.98S
6HR MIN TEMP:  58; 6HR MAX TEMP:  65;

L.A. AIRPORT   CLOUDY    61  42  49 CALM      29.98F
6HR MIN TEMP:  59; 6HR MAX TEMP:  68;

SAN DIEGO      CLOUDY    63  33  32 CALM      29.97F
6HR MIN TEMP:  62; 6HR MAX TEMP:  68;

BURBANK        CLOUDY    59  38  45 CALM      29.99F
6HR MIN TEMP:  59; 6HR MAX TEMP:  62;

ONTARIO        CLOUDY    60  36  40 CALM      30.00F
6HR MIN TEMP:  58; 6HR MAX TEMP:  64;

RIVERSIDE      CLOUDY    57  35  43 NE3       30.01F
6HR MIN TEMP:  54; 6HR MAX TEMP:  61;

PALM SPRINGS   CLOUDY    61  31  32 NW6       30.06S
6HR MIN TEMP:  59; 6HR MAX TEMP:  67;

EL CENTRO NAS  LGT RAIN  55  43  63 N7        30.02F
6HR MIN TEMP:  55; 6HR MAX TEMP:  60; 6HR PCP: TRACE;

IMPERIAL       LGT RAIN  58  41  53 N8        30.02F
6HR MIN TEMP:  55; 6HR MAX TEMP:  60; 6HR PCP: TRACE;

BLYTHE         CLOUDY    54  32  43 S7        30.08R
6HR MIN TEMP:  51; 6HR MAX TEMP:  58;

NEEDLES        MOCLDY    54  31  41 W5        30.09S
6HR MIN TEMP:  53; 6HR MAX TEMP:  64;

$$

NVZ020-UTZ003-261300-
SOUTHERN NEVADA-UTAH

CITY           SKY/WX    TMP DP  RH WIND       PRES   REMARKS
LAS VEGAS      PTCLDY    51  32  48 SW9       30.13F
6HR MIN TEMP:  50; 6HR MAX TEMP:  61;

SALT LAKE CITY CLEAR     31  28  89 SE8       30.42S WCI  23
6HR MIN TEMP:  30; 6HR MAX TEMP:  36;

$$

NMZ009-TXZ055-261300-
NEW MEXICO-WEST TEXAS

CITY           SKY/WX    TMP DP  RH WIND       PRES   REMARKS
ALBUQUERQUE    CLEAR     33  24  69 N13       30.35S WCI  24
6HR MIN TEMP:  30; 6HR MAX TEMP:  39;

EL PASO        CLOUDY    39  27  62 N12       30.29F WCI  32
6HR MIN TEMP:  37; 6HR MAX TEMP:  43;

$$


........................KEY........................
SKY/WX - SKY CONDITION/WEATHER
TMP    - TEMPERATURE IN FAHRENHEIT
DP     - DEW POINT IN FAHRENHEIT
RH     - RELATIVE HUMIDITY IN PERCENT
WIND   - DIRECTION AND SPEED IN MILES PER HOUR (MPH)
VRB    - VARIABLE WIND DIRECTION
PRES   - MEAN SEA LEVEL PRESSURE IN INCHES OF MERCURY
         F - FALLING PRESSURE   R - RISING PRESSURE
         S - STEADY PRESSURE
VSB    - VISIBILITY IN MILES
HX     - HEAT INDEX IN FAHRENHEIT
WCI    - WIND CHILL INDEX IN FAHRENHEIT
TC     - TEMPERATURE IN CELSIUS WHICH IS ALSO KNOWN AS
         TEMPERATURE IN CENTIGRADE
AFB    - AIR FORCE BASE
         LUKE AFB IS LUKE AIR FORCE BASE
         DAVIS-MONTHAN IS DAVIS-MONTHAN AIR FORCE BASE
NAS    - NAVAL AIR STATION
         EL CENTRO NAS IS EL CENTRO NAVAL AIR STATION
N/A    - NOT AVAILABLE


USA.gov is the U.S. government's official web portal to all federal, state and local government web resources and services.